This is the latest recevied weather packets stored in our database for station/object OH6GKW. If no packets are shown the sender has not sent any weather packets the latest 10 day(s).
| Time | Temp. | Humidity | Pressure | Rain* | Wind** | Luminosity | Snow |
|---|---|---|---|---|---|---|---|
| 1788438215 | 17.78° C | 74% | 998.2 hPa | 0 mm | - | 250 W/m² | - |
| 1788437945 | 17.78° C | 75% | 998.2 hPa | 0 mm | - | 250 W/m² | - |
| 1788437616 | 17.78° C | 75% | 998.4 hPa | 0 mm | - | 130 W/m² | - |
| 1788437309 | 17.78° C | 74% | 998.4 hPa | 0 mm | - | 137 W/m² | - |
| 1788437036 | 17.78° C | 73% | 998.4 hPa | 0 mm | - | 155 W/m² | - |
| 1788436726 | 17.78° C | 75% | 998.6 hPa | 0 mm | - | 301 W/m² | - |
| 1788436425 | 17.78° C | 75% | 998.6 hPa | 0 mm | - | 315 W/m² | - |
| 1788436120 | 17.78° C | 73% | 998.6 hPa | 0 mm | - | 201 W/m² | - |
| 1788435814 | 17.78° C | 74% | 998.5 hPa | 0 mm | - | 169 W/m² | - |
| 1788435510 | 17.78° C | 73% | 998.5 hPa | 0 mm | - | 185 W/m² | - |
| 1788435228 | 17.78° C | 71% | 998.5 hPa | 0 mm | - | 150 W/m² | - |
| 1788434913 | 18.33° C | 73% | 998.5 hPa | 0 mm | - | 111 W/m² | - |
| 1788434613 | 18.33° C | 71% | 998.5 hPa | 0 mm | - | 197 W/m² | - |
| 1788434325 | 18.89° C | 71% | 998.5 hPa | 0 mm | - | 267 W/m² | - |
| 1788434018 | 19.44° C | 70% | 998.7 hPa | 0 mm | - | 185 W/m² | - |
| 1788433709 | 18.89° C | 71% | 998.7 hPa | 0 mm | - | 679 W/m² | - |
| 1788433435 | 18.33° C | 71% | 998.7 hPa | 0 mm | - | 588 W/m² | - |
| 1788433125 | 17.78° C | 72% | 998.8 hPa | 0 mm | - | 616 W/m² | - |
| 1788432820 | 18.33° C | 72% | 998.8 hPa | 0 mm | - | 598 W/m² | - |
| 1788432518 | 18.33° C | 72% | 998.8 hPa | 0 mm | - | 688 W/m² | - |
| 1788432213 | 17.78° C | 74% | 998.7 hPa | 0 mm | - | 656 W/m² | - |
| 1788431920 | 17.78° C | 73% | 998.7 hPa | 0 mm | - | 679 W/m² | - |
| 1788431618 | 18.33° C | 73% | 998.7 hPa | 0 mm | - | 649 W/m² | - |
| 1788431310 | 18.33° C | 73% | 998.7 hPa | 0 mm | - | 649 W/m² | - |
| 1788431026 | 17.78° C | 75% | 998.7 hPa | 0 mm | - | 642 W/m² | - |
* Rain since midnight (hover to see other rain measurements)
** Current wind speed in m/s (hover to see current wind gust speed)